Location: Hannover
(52.3723°N, 9.7339°E)
Time: 11:07:42
(UTC+01:00)

Tiangong 2 - Visible Passes

Search period start: 18 January 2018 00:00
Search period end: 28 January 2018 00:00
Orbit: 384 x 390 km, 42.8° (Epoch: 17 January)

Date Brightness Start Highest point End Pass type
(mag) Time Alt. Az. Time Alt. Az. Time Alt. Az.
19 Jan 4.0 07:14:57 10° SSW 07:16:24 13° SSE 07:17:52 10° SE visible
20 Jan 4.2 06:17:43 10° SSE 06:17:59 10° SSE 06:18:15 10° SSE visible
21 Jan 3.8 06:53:39 10° SSW 06:55:29 14° S 06:57:20 10° SE visible
22 Jan 3.8 05:56:27 12° S 05:57:02 13° SSE 05:58:31 10° SE visible
22 Jan 3.8 07:31:09 10° SW 07:33:03 15° S 07:34:56 10° SSE visible
23 Jan 3.6 06:32:47 11° SW 06:34:33 15° S 06:36:31 10° SE visible
24 Jan 3.8 05:36:47 14° SSE 05:36:47 14° SSE 05:37:54 10° SE visible
24 Jan 3.7 07:10:30 10° SW 07:12:05 13° S 07:13:41 10° SSE visible
25 Jan 3.4 06:13:02 14° SSW 06:13:35 15° S 06:15:27 10° SSE visible
26 Jan 4.3 05:16:59 10° SE 05:16:59 10° SE 05:17:01 10° SE visible
26 Jan 3.8 06:50:18 10° SSW 06:51:04 11° SSW 06:51:49 10° S visible
27 Jan 3.7 05:53:12 12° S 05:53:12 12° S 05:54:07 10° SSE visible
